Theta_e
290 291 291 288 286 287 287 287 287 285 286 286 286 287 289 289 285 284 289 289 286 290 292 293 292 291 292 293 292 292 293 289 286 286 286 287 286 285 284 285 285 285 285 285 285 285 286 286 287 287 288 288 288 288 288 287 287 287 286 286 285 285 284 284 284 283 283 283 283 282 282 281 281 280 281 281 280 280 280 279 279 279 279 279 278 277 277
289 290 290 289 286 287 284 286 287 287 287 286 287 288 290 289 288 289 290 290 289 292 294 295 295 295 293 293 292 289 290 290 291 288 287 287 287 286 285 286 286 286 286 286 286 285 285 286 287 287 287 288 288 287 287 287 286 287 286 285 285 285 285 284 284 284 283 283 282 282 282 281 281 281 281 280 280 280 279 279 279 279 279 278 278 277 277
287 289 290 290 286 286 285 283 284 287 287 288 288 289 289 289 288 290 290 289 289 295 297 294 293 293 294 293 290 292 292 291 291 291 291 290 289 288 287 287 287 287 286 286 285 285 285 286 286 287 288 288 288 287 287 286 286 286 286 285 285 285 285 285 284 284 283 283 283 282 282 282 282 281 281 280 280 280 279 279 279 278 278 278 277 277 277
285 289 288 288 286 283 284 284 284 285 285 284 287 286 289 287 287 288 288 287 288 294 296 296 295 289 291 292 293 293 294 293 293 293 294 293 292 291 291 289 288 287 286 286 286 286 286 286 286 287 287 288 287 287 287 286 286 285 285 285 285 285 285 285 284 283 283 283 282 282 282 282 281 281 281 280 280 280 279 279 278 278 278 278 278 277 277
285 288 289 288 283 284 283 284 286 287 288 288 288 289 290 290 291 287 285 287 293 296 291 289 290 289 290 292 293 294 294 294 295 295 296 296 295 294 293 292 290 289 288 287 287 287 287 286 286 287 287 287 287 287 287 286 285 284 285 285 285 285 285 285 284 284 284 283 283 283 282 282 281 281 280 280 279 279 279 279 278 278 278 278 277 277 276
285 287 287 285 283 278 280 292 295 293 289 288 286 287 289 290 291 290 293 293 296 295 295 294 294 289 290 293 295 297 299 298 295 295 294 294 295 294 294 294 293 291 289 289 288 288 288 287 287 287 287 287 287 287 287 286 285 284 284 284 285 285 285 285 284 284 284 283 283 283 282 282 281 280 280 279 280 280 279 279 278 278 278 278 277 276 276
284 287 286 282 277 280 291 295 294 296 295 293 290 291 292 292 292 292 291 292 293 295 296 296 295 294 293 293 294 294 294 295 296 296 294 294 294 295 295 293 291 291 291 290 288 287 287 286 286 286 286 287 286 286 285 285 285 284 284 284 284 285 285 285 285 284 284 283 283 283 282 282 281 280 280 280 280 280 279 279 278 278 278 277 277 277 277
286 284 284 277 279 287 287 289 292 290 293 294 292 289 292 293 293 292 291 293 295 296 296 296 296 294 290 288 290 292 293 293 294 293 294 294 293 293 294 293 293 292 291 291 289 288 286 286 285 285 285 286 285 285 285 285 284 284 284 284 284 284 284 284 284 284 284 283 283 282 282 281 281 280 280 280 279 280 279 279 279 278 278 278 277 277 277
281 284 284 283 288 287 288 288 287 288 289 288 289 286 289 294 294 293 292 293 294 295 296 296 296 291 290 292 296 296 292 292 292 294 296 297 295 294 293 292 293 292 290 289 288 286 285 285 285 285 285 285 285 284 284 284 284 284 284 284 284 284 284 284 284 284 284 283 283 282 282 281 281 280 280 280 280 279 279 279 278 278 278 278 278 277 277
287 283 282 283 282 279 286 292 294 291 293 293 293 291 288 294 294 295 294 293 294 294 294 294 292 290 291 291 294 298 293 294 294 293 293 294 292 292 292 289 288 286 286 285 285 285 284 284 284 284 284 285 284 283 283 283 283 283 283 284 284 284 284 284 284 284 284 284 283 283 282 281 281 281 281 281 280 279 279 278 278 278 278 277 277 277 277
285 283 281 281 280 283 290 291 292 289 291 292 289 288 286 294 295 294 294 293 294 293 293 294 290 290 289 291 295 295 291 292 292 293 294 293 292 289 287 287 287 284 284 285 284 284 284 283 283 283 284 284 283 283 283 282 283 283 283 283 283 284 284 284 284 284 284 284 283 283 282 282 281 281 281 281 280 279 279 279 278 278 278 277 277 277 277
285 284 282 280 285 285 289 288 286 286 288 292 290 280 283 295 295 292 292 292 293 294 294 294 292 291 289 291 296 294 289 288 290 290 292 290 287 285 283 283 285 284 283 283 283 283 283 283 282 283 283 283 283 282 282 282 282 283 283 284 285 285 285 284 284 284 284 283 283 283 282 282 282 281 281 280 280 279 279 279 279 278 278 278 277 277 277
285 285 283 286 286 287 288 284 284 285 290 292 285 281 289 291 290 291 293 294 295 296 295 294 290 292 296 298 292 281 283 284 284 280 280 282 283 284 283 284 283 283 283 284 283 283 283 282 282 283 283 283 282 282 282 281 282 283 284 284 285 284 284 284 284 283 284 284 283 283 283 282 282 281 281 281 280 279 279 279 279 278 277 277 277 277 276
283 284 283 283 287 287 286 283 287 289 290 280 284 292 288 288 286 290 293 293 295 295 295 294 294 296 295 290 279 283 282 284 281 280 280 280 281 280 281 282 283 283 283 282 282 281 281 282 282 282 283 282 282 282 281 281 282 283 284 284 284 284 284 283 283 283 283 283 284 283 283 282 281 281 281 281 280 280 279 278 278 277 276 276 276 275 274
286 285 282 282 278 288 288 289 288 288 288 289 289 288 286 286 286 288 289 292 293 293 293 292 293 294 283 283 283 282 281 280 281 280 281 282 282 282 281 281 281 283 282 282 281 281 281 281 282 283 283 282 281 281 281 282 283 283 284 284 284 284 283 283 283 283 283 283 283 283 282 282 281 281 280 279 278 278 277 276 276 275 274 274 273 273 273
282 282 280 281 288 287 290 293 288 289 292 289 287 291 293 285 282 287 289 289 291 290 292 292 289 287 285 281 279 280 279 279 279 279 279 279 279 279 279 280 280 281 280 280 280 279 281 281 282 283 283 282 282 282 282 283 283 283 283 283 283 283 283 283 282 282 282 282 282 282 282 281 281 279 277 277 276 276 275 275 274 274 273 272 272 272 272
287 285 288 287 286 289 291 294 294 295 297 293 289 292 293 290 286 283 285 288 288 286 287 286 286 284 283 285 282 283 282 281 280 280 280 280 279 279 280 279 278 279 280 279 279 279 279 280 282 283 283 282 281 282 282 283 283 283 283 283 283 282 282 282 282 282 281 281 280 279 279 279 278 277 275 274 274 272 273 273 273 273 273 272 272 273 273
287 288 287 287 284 284 288 291 292 294 296 295 290 289 289 286 287 285 288 287 288 285 285 288 282 285 285 281 280 279 280 280 278 278 277 276 276 276 276 276 277 278 278 278 278 278 276 277 279 279 281 282 281 282 281 282 282 283 282 282 282 281 281 280 280 278 277 276 277 277 277 278 278 277 275 275 275 273 273 273 273 273 273 272 272 272 272
288 284 289 290 290 289 288 292 293 291 285 287 288 288 288 289 286 285 286 287 287 286 285 288 289 286 281 282 280 279 278 278 278 277 278 277 277 277 277 276 276 277 277 278 277 277 276 273 275 275 276 278 281 279 279 280 280 281 281 280 279 277 277 276 276 276 276 276 275 275 275 276 276 275 275 275 275 273 273 273 273 273 273 272 272 272 272
287 287 290 290 292 292 288 290 290 291 291 286 282 286 287 286 284 285 285 283 282 282 283 286 287 284 281 282 280 279 279 279 278 278 277 277 276 275 275 275 277 277 278 278 277 276 275 273 273 274 275 275 276 276 275 276 277 278 278 277 277 276 275 275 275 276 276 272 274 275 274 275 275 274 274 275 275 274 273 274 273 272 272 272 272 272 272
288 289 288 289 285 286 287 287 286 289 289 287 286 284 283 282 283 283 282 283 284 283 285 283 283 281 280 282 281 281 280 279 278 278 278 277 276 275 276 275 276 279 278 277 277 276 274 272 272 271 270 270 271 274 274 274 276 277 276 275 275 273 273 274 273 274 275 274 275 274 274 273 273 274 275 274 275 274 271 274 275 274 273 273 273 273 273
285 286 289 291 286 287 290 290 290 290 289 287 286 283 282 283 283 284 283 283 281 282 283 283 284 284 282 281 281 281 281 280 279 278 277 276 276 275 275 275 276 276 276 277 275 274 273 272 272 271 269 268 268 270 272 273 275 275 274 273 273 272 272 273 272 272 272 272 271 273 273 273 272 268 272 276 274 274 271 274 277 278 277 273 272 271 271
285 288 290 289 290 291 293 292 290 290 289 287 287 286 285 284 284 285 285 282 279 281 280 281 283 283 282 281 281 281 280 280 279 279 277 277 276 275 275 276 275 276 275 275 274 273 272 271 271 270 269 268 268 268 270 272 274 274 274 274 272 271 271 271 272 272 271 271 270 270 271 272 271 271 269 269 278 278 277 276 277 279 279 279 278 276 272
290 291 292 292 288 288 292 292 287 288 288 287 287 288 286 285 284 284 285 285 285 283 280 279 281 283 282 281 281 280 279 278 278 277 276 277 277 276 276 278 276 275 274 275 275 273 272 272 271 269 268 266 266 266 267 270 273 274 274 274 273 272 271 270 271 271 271 271 270 270 269 269 270 270 271 269 268 275 278 277 278 278 279 279 279 279 278
289 292 289 288 288 290 291 285 283 285 286 287 288 288 288 286 284 284 284 285 284 284 281 280 280 281 281 281 282 281 280 279 278 278 277 276 276 276 276 275 276 276 276 275 273 272 272 271 270 269 267 265 265 265 265 268 272 274 273 274 272 271 270 270 270 270 269 269 269 269 268 267 267 268 269 269 270 268 270 277 278 278 278 279 279 279 279
289 289 285 281 280 283 283 282 283 284 284 284 286 287 286 285 285 284 284 284 284 283 282 282 280 280 282 282 282 281 280 278 278 278 277 276 276 275 275 276 275 275 274 273 272 272 271 270 269 268 266 263 262 261 263 266 271 273 272 272 272 271 270 270 269 269 268 268 268 268 268 268 268 268 268 269 269 269 268 265 267 272 275 277 277 277 278
282 281 281 283 285 286 284 285 289 286 284 284 285 286 285 283 283 283 282 280 280 280 281 282 281 281 282 282 282 281 280 278 278 278 278 277 277 277 276 274 274 274 273 272 271 270 270 269 268 267 263 261 260 260 262 265 268 268 268 268 267 266 266 267 268 268 267 268 267 266 266 265 265 265 265 263 265 264 265 266 265 265 261 262 268 273 273
280 280 282 284 286 288 286 284 285 282 281 282 282 283 280 280 281 280 280 279 278 278 280 280 280 280 280 280 280 278 278 278 278 277 277 277 275 273 273 274 273 273 272 271 269 268 268 267 265 263 260 260 259 259 260 264 267 267 266 267 267 267 266 266 265 266 266 265 265 265 264 263 262 262 262 263 264 262 262 261 261 260 261 261 260 265 271
282 281 280 281 280 278 277 277 278 279 278 278 278 277 278 280 280 280 280 280 279 278 278 277 279 281 281 280 280 279 279 279 278 278 276 273 272 272 272 271 271 270 269 268 267 267 266 266 265 263 260 259 258 258 259 264 267 267 266 266 267 266 265 263 263 263 262 262 262 263 263 262 262 261 261 262 260 260 260 260 259 257 257 255 258 260 265
282 278 277 278 278 277 278 277 277 276 276 275 276 276 279 280 280 280 280 278 278 279 279 279 279 279 279 280 280 280 279 279 278 275 271 271 271 270 270 270 270 269 268 268 266 266 266 265 264 262 260 257 258 257 260 264 264 264 264 264 264 264 262 261 261 261 262 262 263 264 261 260 260 262 260 260 259 259 259 258 259 258 256 257 261 257 258
277 277 277 278 278 277 277 277 277 276 275 274 275 275 277 279 281 280 279 278 278 278 278 279 279 278 279 279 279 278 277 275 272 271 270 269 269 270 271 272 275 273 270 266 264 263 262 261 260 260 257 255 255 258 262 264 264 263 263 263 263 264 265 265 265 263 262 262 261 261 260 260 260 260 260 259 258 258 257 257 257 256 255 253 255 256 257
277 278 278 277 277 276 276 277 278 278 277 276 276 276 277 277 278 278 278 278 278 278 278 278 278 278 278 277 276 274 272 271 269 268 266 266 264 263 263 265 267 265 263 261 261 261 261 261 259 257 256 256 256 258 262 264 264 265 264 262 263 264 265 266 264 263 261 260 260 260 259 259 258 258 258 258 258 257 256 256 255 255 254 255 255 256 254
281 280 281 281 277 276 276 278 279 279 278 277 278 279 279 280 280 279 278 279 278 278 279 279 278 277 275 275 273 272 270 269 268 267 264 262 260 260 260 261 261 259 258 257 258 259 260 260 258 256 255 256 256 257 259 262 263 262 262 262 263 262 262 263 262 261 259 259 258 258 257 257 257 257 257 257 256 256 255 255 255 254 254 253 253 252 254
266 270 273 274 278 284 286 285 281 281 279 279 278 279 279 278 279 279 278 278 278 277 278 278 276 275 274 274 272 271 270 270 269 265 261 259 259 259 259 258 257 257 257 257 257 257 257 256 256 257 257 257 257 258 259 260 260 260 260 261 261 261 260 259 260 259 259 257 257 257 257 256 256 257 256 256 255 255 255 255 255 254 253 253 253 250 258
265 265 267 269 268 268 271 280 281 280 279 278 277 278 280 279 278 278 278 278 278 278 277 275 274 274 273 273 272 272 274 276 272 263 260 259 258 258 258 258 258 257 256 255 255 255 255 255 255 256 257 257 257 257 257 258 258 259 257 259 259 258 258 257 258 258 258 256 255 256 255 256 255 256 255 255 255 255 255 254 254 253 254 253 253 252 256
263 263 263 263 263 263 264 268 275 278 279 279 279 279 279 278 277 277 277 277 275 274 274 274 273 273 273 272 272 274 273 269 264 260 259 259 259 260 261 261 259 258 257 256 255 252 253 254 257 257 258 258 257 256 256 255 257 257 257 258 258 257 257 256 256 255 255 255 256 255 255 255 255 255 254 254 253 253 254 253 253 253 252 252 252 251 251
262 262 262 261 262 262 263 263 261 264 274 276 275 275 275 274 275 273 273 273 273 274 273 273 272 273 272 270 268 267 266 264 262 260 260 260 261 262 262 261 262 261 261 259 255 252 252 255 256 256 256 257 257 256 256 256 256 256 257 257 257 256 256 255 255 255 254 254 255 255 255 255 254 253 253 253 253 252 253 253 253 251 251 251 251 251 251
260 261 260 260 260 261 261 261 261 261 265 267 266 267 269 270 269 270 271 271 271 272 272 272 271 268 265 265 265 264 263 262 261 260 261 261 262 262 262 262 261 262 261 258 254 252 253 254 255 255 256 256 255 255 256 256 256 256 256 256 256 256 256 255 255 254 254 253 253 253 253 254 253 252 251 250 251 252 252 252 252 251 250 250 250 250 250
258 259 259 259 259 259 259 260 259 259 258 261 263 264 264 265 265 267 268 268 268 269 268 266 265 265 265 262 261 261 261 260 260 261 261 260 260 256 251 250 249 250 252 252 252 252 253 253 253 254 255 255 255 256 255 255 255 254 255 255 255 255 255 255 255 254 253 252 252 252 252 252 252 252 251 250 249 251 252 251 250 251 249 248 248 248 248
256 257 257 257 257 257 257 258 258 257 257 257 259 259 261 264 265 265 265 265 264 265 267 267 267 266 262 259 258 258 258 259 259 258 255 253 252 252 253 253 251 250 252 253 252 252 253 254 253 253 253 252 253 254 254 255 254 254 254 254 254 254 254 253 254 254 252 253 254 253 252 252 251 251 250 250 250 249 249 249 249 249 248 248 247 246 248
255 256 256 257 256 256 256 256 256 257 256 256 257 257 258 260 264 265 264 264 264 266 267 267 266 263 259 256 255 255 256 256 256 256 256 258 259 260 259 255 251 249 250 251 251 253 253 253 253 253 253 253 252 254 253 254 252 252 253 253 253 253 253 253 253 253 253 253 252 252 251 251 251 250 250 249 248 248 248 248 248 248 247 246 245 245 246
255 255 256 256 256 256 256 256 256 256 256 256 256 257 258 260 261 260 261 261 261 261 260 260 260 258 255 255 255 255 254 253 252 251 252 256 258 259 256 253 251 250 253 253 252 252 252 251 252 252 252 253 253 254 253 252 252 252 252 252 252 252 253 253 252 250 250 250 250 249 249 249 250 249 249 248 247 247 247 247 247 247 245 246 246 246 246
254 254 254 255 255 255 255 255 255 255 255 255 255 256 257 258 259 259 258 257 256 255 255 255 255 256 256 256 256 255 253 253 253 252 252 251 249 250 255 254 251 251 253 250 251 251 251 250 252 251 254 253 254 254 254 253 252 252 252 252 252 252 251 252 251 250 250 250 248 247 248 247 247 248 248 246 246 246 247 246 246 246 246 244 245 245 246
254 254 254 254 254 254 254 254 254 254 254 254 254 255 256 257 257 257 257 257 257 257 256 256 257 257 257 257 257 256 255 255 254 255 254 253 253 253 252 252 252 253 253 251 251 251 251 251 252 254 255 255 254 254 254 254 253 253 252 252 252 252 251 251 250 250 250 249 249 248 248 248 245 245 246 246 244 243 245 245 244 244 245 245 244 246 245
254 254 254 254 254 254 254 254 253 253 254 254 253 253 253 253 254 255 256 256 256 257 257 257 257 257 257 256 255 254 253 253 253 255 257 256 254 252 252 252 252 252 253 253 251 251 251 252 254 255 255 255 254 254 254 254 254 253 252 252 251 251 251 250 250 249 249 248 247 246 248 247 246 246 245 246 248 246 246 246 246 246 246 246 246 246 247
255 255 255 255 254 254 255 255 255 256 255 254 253 253 252 253 253 253 253 254 254 254 255 254 254 253 253 252 252 253 253 253 252 252 252 255 256 254 253 252 252 253 253 253 252 253 254 255 255 255 255 254 254 254 254 254 253 253 253 252 249 250 250 250 249 249 248 247 247 246 246 245 245 245 244 245 246 247 248 249 249 247 247 247 247 247 248
255 255 255 254 254 254 255 255 255 254 254 253 251 251 252 253 253 253 253 253 253 253 253 254 254 254 255 255 256 255 253 253 253 254 254 254 254 253 254 254 254 254 253 253 253 254 255 255 255 255 254 253 252 251 252 252 252 251 251 249 248 249 249 248 247 246 247 247 249 249 249 247 245 244 247 248 247 248 247 248 248 248 247 248 248 249 249
254 254 254 254 254 255 255 254 253 253 252 252 252 253 253 254 254 254 254 254 254 253 253 253 253 253 254 254 253 253 255 257 254 253 253 252 253 253 253 253 253 254 254 255 255 255 255 255 255 255 254 252 250 251 253 252 253 251 248 248 248 247 247 247 246 246 246 248 249 246 246 246 246 246 246 246 248 247 248 247 249 248 247 248 249 249 247
254 254 254 254 254 254 254 254 254 253 253 254 254 254 255 254 254 254 254 254 254 254 254 254 254 254 254 254 254 255 253 254 255 253 254 254 254 254 255 255 254 254 254 254 254 255 255 255 255 255 254 252 249 249 250 250 250 249 248 247 247 248 247 246 245 244 245 245 247 247 246 247 246 245 246 247 247 247 248 248 248 247 248 248 249 249 248
254 253 253 253 253 253 253 254 253 254 254 254 254 255 255 256 254 254 254 254 254 254 254 254 254 254 254 255 255 255 255 255 255 255 255 255 255 255 254 254 254 254 253 253 253 254 254 255 255 254 254 253 253 253 251 250 250 251 249 250 252 248 248 249 251 250 247 247 247 248 248 247 247 247 248 246 247 248 248 249 247 250 250 250 249 250 248
253 253 253 253 253 253 254 254 254 255 255 255 255 255 255 255 254 255 255 255 255 254 254 254 254 254 255 255 255 256 256 256 256 256 256 256 256 255 255 256 256 255 255 255 254 254 255 254 254 254 254 254 254 252 252 252 251 251 252 251 250 250 250 251 250 249 248 249 248 248 248 247 247 247 247 248 248 248 249 248 249 249 249 249 249 249 249
253 253 253 253 253 253 253 253 254 254 254 254 255 255 255 254 254 254 254 254 254 254 254 253 252 253 254 254 254 255 255 256 256 256 256 256 256 256 255 255 255 255 255 255 254 253 253 253 254 253 253 252 251 251 251 252 252 251 250 251 251 250 251 250 249 249 248 249 249 248 249 248 247 248 249 248 249 249 249 249 249 249 249 249 249 249 249
Wind_Speed
17 18 18 8 8 11 14 17 16 16 17 14 18 21 25 18 15 22 20 10 15 23 26 14 12 9 11 11 10 12 11 3 2 4 5 7 9 9 9 10 9 10 11 12 11 11 11 10 12 12 11 11 11 10 10 11 11 12 12 12 13 13 13 13 12 11 10 9 8 9 9 10 12 12 12 12 11 11 11 10 9 11 10 10 9 8 6
16 17 20 12 15 10 5 11 17 18 18 20 24 26 27 24 18 15 18 19 18 20 24 17 12 11 10 8 8 3 1 5 8 6 7 8 11 11 11 11 11 12 13 10 10 10 11 14 13 13 13 13 13 13 12 11 12 11 11 13 13 12 13 13 11 10 11 10 10 10 10 12 12 12 11 11 11 12 12 11 10 10 10 10 10 11 10
13 19 19 17 12 13 11 4 4 11 19 24 28 26 22 17 16 18 22 22 23 23 22 10 7 7 7 7 6 8 9 8 9 11 11 11 11 11 10 9 10 11 10 9 8 11 14 15 16 15 14 12 11 12 12 12 13 11 11 12 13 13 13 12 11 11 11 12 11 13 12 12 10 12 12 11 11 10 10 10 11 11 10 11 11 11 12
12 14 18 20 7 4 8 8 8 15 21 23 20 16 13 14 20 23 19 17 22 25 13 13 11 4 8 10 12 12 13 13 12 13 14 12 11 12 11 11 10 9 10 11 12 14 16 16 15 13 13 13 12 14 12 12 11 10 12 12 13 13 12 12 12 13 13 14 14 14 14 12 12 11 10 10 10 10 10 10 9 8 11 12 11 10 8
13 16 15 15 3 3 6 13 21 27 25 15 7 13 17 22 21 14 15 22 22 24 3 2 5 9 11 12 12 13 13 14 15 18 18 15 12 11 11 12 12 12 12 14 16 15 13 13 15 16 13 11 15 13 12 11 10 11 13 12 12 12 12 12 13 13 13 13 13 11 11 10 10 10 10 10 10 10 11 10 8 10 12 11 11 10 10
9 15 14 5 5 15 17 18 27 21 19 14 13 17 22 21 12 15 18 19 19 17 17 18 19 8 8 11 13 15 16 15 14 14 11 10 11 12 12 13 12 11 10 9 11 14 14 13 13 10 12 13 10 9 10 10 13 12 12 11 11 11 11 12 12 12 12 11 12 11 11 11 10 11 11 12 11 9 9 9 10 10 10 11 10 10 11
9 10 5 9 18 17 12 13 5 13 16 18 25 27 24 18 15 15 17 19 21 25 22 15 12 8 11 11 13 13 12 10 10 11 10 12 14 16 16 12 10 11 12 12 10 9 11 10 8 10 10 10 9 10 11 12 11 12 11 11 11 10 11 10 10 10 11 11 10 9 10 10 10 11 11 10 10 10 10 12 12 12 12 12 11 11 10
2 3 8 11 11 3 4 4 8 4 9 17 16 17 20 23 22 21 22 25 26 24 22 18 14 9 6 5 9 14 13 9 10 8 12 14 13 15 13 12 13 12 13 14 14 12 6 9 10 11 11 10 11 11 11 13 12 12 12 12 12 11 11 11 11 11 11 10 11 11 11 11 11 12 11 12 12 10 9 8 7 6 6 7 10 11 10
11 8 13 17 5 9 6 6 6 10 10 8 14 16 19 21 17 17 21 26 27 26 23 20 13 1 5 10 18 16 12 13 13 15 17 15 12 12 11 11 13 10 7 7 8 6 8 9 10 11 10 11 11 11 11 11 11 11 12 12 12 12 11 11 12 12 13 13 12 12 12 12 11 11 11 11 9 7 9 8 8 9 9 9 8 9 10
11 12 12 8 9 12 15 20 13 5 9 9 9 11 14 11 14 21 22 25 26 20 17 16 7 2 6 16 20 19 9 17 15 13 14 12 8 9 9 6 5 4 4 3 4 8 9 9 10 10 11 12 12 11 11 11 12 12 12 13 12 12 12 12 12 12 12 12 12 12 12 13 13 11 9 6 8 8 10 10 10 9 7 6 5 6 8
8 12 11 11 10 11 8 16 11 6 8 10 6 6 14 14 20 17 19 21 17 15 17 19 4 5 10 17 20 10 10 8 9 12 14 13 11 8 6 6 6 5 6 8 8 8 10 11 9 11 12 13 12 12 12 12 12 12 12 11 11 12 12 11 11 10 10 10 10 11 12 12 12 12 12 11 8 7 7 7 7 6 6 6 5 5 7
10 10 11 12 6 9 9 4 2 5 6 12 11 9 9 20 12 7 10 11 16 19 18 18 11 11 15 15 20 7 7 5 7 8 10 9 5 4 3 4 5 6 6 7 7 10 11 11 11 13 12 12 12 12 11 11 12 12 13 13 11 9 9 10 10 10 11 13 12 13 13 11 10 10 8 8 9 9 8 7 7 6 7 7 9 7 7
16 16 13 6 7 3 6 4 2 4 7 11 10 15 14 2 5 9 13 18 20 19 18 14 11 16 18 20 8 6 1 3 1 0 1 1 2 4 4 4 5 6 6 7 9 9 8 10 11 11 11 11 10 9 10 10 11 11 10 8 9 10 10 10 9 10 9 11 12 10 10 10 10 9 8 9 9 9 9 7 7 7 8 7 8 7 7
15 13 15 12 7 5 5 0 9 8 6 5 14 7 1 4 3 10 16 16 17 16 17 13 13 16 15 7 2 2 2 4 2 1 1 2 2 3 1 4 5 6 6 6 7 6 7 11 11 10 11 11 9 10 9 11 10 7 9 9 9 9 9 9 9 9 10 8 9 9 9 9 10 9 8 9 9 10 8 8 9 9 8 7 7 7 6
8 8 11 9 12 4 6 11 1 3 8 8 3 0 3 0 4 7 6 10 12 13 12 11 12 11 2 3 5 4 4 5 5 5 5 5 5 5 4 4 3 7 7 8 7 8 8 9 10 9 11 11 9 9 11 10 8 9 9 9 9 9 9 10 10 10 9 11 10 8 9 10 11 10 8 9 8 8 8 8 9 9 8 7 7 6 5
9 12 11 9 6 4 11 15 9 7 12 3 4 5 7 4 4 6 7 9 10 8 11 11 8 5 5 1 3 2 2 2 2 2 2 2 3 3 2 3 5 6 7 7 7 6 7 7 8 9 11 11 10 11 9 7 8 8 9 9 9 10 10 10 10 9 10 10 9 9 10 10 9 9 9 8 8 8 8 8 7 8 6 6 6 6 7
11 8 9 2 2 10 11 8 8 11 15 10 9 10 8 6 7 4 3 8 8 5 6 4 4 4 7 6 6 8 7 7 6 6 5 5 5 5 5 6 5 5 9 9 9 7 5 7 6 7 7 11 10 10 7 8 9 10 10 10 10 9 9 9 9 8 8 8 8 8 8 9 9 8 8 8 8 5 7 6 7 7 7 6 8 7 6
3 3 2 1 1 3 8 9 6 10 13 14 8 9 9 7 7 9 9 8 8 6 5 6 4 7 6 6 6 4 3 5 3 3 4 3 4 4 5 5 5 7 8 8 10 10 6 5 6 5 5 9 11 8 7 8 9 10 10 11 10 10 9 8 8 8 9 6 7 8 9 8 9 9 10 9 8 7 7 7 7 7 7 7 7 6 7
8 9 6 13 12 9 11 15 16 10 5 5 5 6 8 7 7 8 8 6 5 6 6 9 11 9 6 7 5 4 5 6 6 7 7 6 6 8 8 6 8 9 9 10 9 9 8 3 5 5 5 3 6 8 8 8 9 10 10 10 9 8 9 8 7 9 10 8 7 6 7 6 6 6 7 7 7 8 8 8 7 6 6 7 6 6 7
13 9 9 8 10 10 4 8 8 11 14 8 4 6 5 4 1 3 5 3 3 4 6 11 10 7 7 9 9 8 7 8 7 6 7 7 5 3 4 6 6 7 8 10 11 9 9 5 5 5 5 6 6 8 7 8 8 9 9 9 10 9 9 8 8 8 8 10 10 7 7 7 7 6 6 7 8 9 10 9 8 7 7 7 7 8 7
7 7 7 8 4 4 7 8 8 9 6 4 7 7 6 4 4 3 2 5 6 9 10 6 6 6 9 9 10 10 8 7 7 7 8 5 6 7 8 6 6 9 9 10 9 10 8 5 5 6 5 5 5 7 7 7 9 10 9 8 8 8 7 7 7 6 7 8 7 8 7 6 5 5 9 9 8 5 3 6 8 9 8 7 6 5 6
8 10 12 9 9 10 9 10 14 15 11 6 6 4 6 8 9 8 8 7 4 6 5 7 9 10 9 7 8 11 10 9 8 7 7 7 8 7 5 6 6 7 7 11 12 10 7 5 7 7 6 5 4 4 5 6 8 10 10 9 8 8 7 7 7 7 6 7 6 7 7 7 6 3 3 4 4 5 5 5 7 5 6 6 5 5 6
9 6 8 5 5 10 12 8 4 7 7 9 12 13 12 11 10 9 9 7 3 6 7 6 9 8 10 11 8 7 7 7 6 7 10 10 8 8 8 11 9 10 9 10 12 11 8 7 8 8 7 5 5 4 4 5 7 9 10 9 7 7 7 7 8 7 7 7 6 6 6 7 6 6 5 3 2 5 6 5 7 8 8 7 7 8 6
14 14 14 11 4 9 14 13 5 7 7 10 14 15 13 11 10 9 10 12 14 11 7 7 7 8 7 8 10 9 6 6 8 7 5 5 7 8 7 10 12 12 11 10 12 12 8 8 9 8 8 5 4 3 3 5 7 8 8 9 9 7 7 6 7 7 6 7 7 7 6 5 6 6 6 5 1 3 5 6 5 7 6 7 7 7 9
12 11 6 6 7 10 9 6 5 6 5 9 11 14 15 13 11 11 12 11 7 10 12 10 7 8 11 11 10 12 12 9 9 10 9 8 8 8 9 9 11 12 10 9 8 9 8 9 9 8 8 5 4 3 3 3 5 8 7 8 8 7 7 7 7 7 7 7 6 7 7 7 6 6 7 6 7 2 0 1 5 4 4 4 4 5 6
11 11 6 3 4 7 7 5 8 9 7 7 8 9 9 10 11 9 11 9 7 7 8 10 10 8 11 13 10 8 9 11 11 9 10 9 7 7 8 9 8 8 9 9 9 9 9 9 9 8 8 5 4 4 3 2 4 6 6 6 8 8 8 8 8 6 6 6 7 6 5 6 6 6 5 6 5 5 6 2 3 4 4 5 6 4 3
5 4 4 7 9 12 7 10 13 6 7 9 12 12 6 3 5 6 4 4 4 5 7 7 9 11 9 7 9 9 12 10 7 7 7 8 8 8 7 6 8 10 11 10 9 9 10 10 9 8 7 4 4 3 3 2 6 7 6 7 6 7 9 7 6 7 6 5 6 6 5 5 6 5 5 4 4 5 6 6 5 3 1 2 5 7 4
4 3 5 8 12 12 6 6 11 8 4 7 8 8 4 5 6 5 5 3 3 4 4 6 9 12 11 9 11 10 9 12 12 8 8 8 5 6 7 8 9 10 10 10 10 9 9 8 9 10 6 3 4 3 2 2 6 7 7 7 7 7 6 6 6 5 5 5 5 6 6 5 5 5 6 6 5 5 5 4 5 3 0 1 1 5 5
7 6 5 7 9 8 6 5 3 5 5 2 1 3 5 6 7 7 8 8 6 6 6 5 5 8 13 12 10 13 12 11 10 10 8 7 6 7 7 9 9 9 10 10 8 8 8 8 8 9 5 3 3 2 1 3 6 7 7 7 7 7 6 5 5 6 6 6 5 6 6 7 6 6 6 5 6 5 6 6 4 3 2 1 3 2 4
7 3 4 5 4 1 2 3 4 5 4 2 3 4 5 8 8 8 8 5 5 8 6 6 8 5 4 8 8 12 14 13 11 9 9 7 7 7 8 10 11 9 9 9 8 7 8 8 8 8 3 2 2 2 3 6 7 7 7 7 7 7 6 6 7 7 7 6 6 7 7 5 5 6 5 5 5 5 6 5 4 4 2 2 3 2 1
3 1 2 1 1 1 2 2 0 1 2 3 3 3 4 5 7 7 7 6 4 4 4 6 7 8 7 6 4 6 8 10 10 10 9 8 7 7 7 6 11 12 10 9 7 7 8 8 7 6 1 2 1 2 5 7 7 8 7 7 7 9 10 9 7 7 7 7 7 7 6 6 5 6 7 6 6 6 6 5 5 4 4 3 2 1 1
4 5 2 1 1 0 0 1 3 3 2 0 2 5 5 4 7 8 6 7 7 8 8 7 8 9 8 8 8 10 11 11 11 11 10 9 7 5 4 5 7 10 10 8 7 7 7 8 8 2 1 1 2 3 5 7 7 8 7 7 8 6 7 9 7 6 7 7 6 6 6 7 6 6 6 6 6 6 6 6 5 4 4 3 2 1 1
5 6 7 6 5 4 4 3 4 4 4 4 6 3 2 3 2 1 2 2 4 5 8 8 7 7 7 8 9 11 12 11 10 10 10 9 8 8 8 8 10 11 10 6 5 5 5 9 7 2 2 2 4 4 5 6 7 8 7 7 7 6 6 6 7 7 6 6 6 6 6 6 6 6 6 6 6 6 6 5 5 4 3 4 2 1 1
6 8 11 11 10 9 8 8 7 5 4 3 3 2 3 3 0 2 2 3 3 3 3 5 7 8 8 9 10 12 13 13 11 10 11 12 9 9 8 8 8 8 8 7 7 5 4 5 4 4 4 5 6 6 6 7 7 7 7 7 7 7 7 6 7 6 7 7 7 6 6 7 6 6 7 7 6 6 6 5 6 6 4 2 1 0 3
8 10 10 10 9 11 12 7 5 7 7 8 6 6 6 4 4 5 4 6 8 6 5 7 8 8 8 9 11 11 12 14 14 14 8 7 8 8 9 11 10 11 14 10 6 5 4 3 3 4 7 7 7 6 6 7 7 8 6 8 7 7 6 6 6 6 7 7 6 6 6 6 6 5 6 6 6 6 6 6 4 5 5 4 1 1 3
12 11 11 12 12 12 11 12 8 3 8 7 7 7 7 7 6 7 9 6 4 6 7 9 9 8 9 10 10 9 7 8 13 10 9 8 8 9 8 10 12 16 13 10 5 3 3 2 4 4 5 6 7 7 7 6 6 7 7 8 8 7 7 6 7 6 6 6 6 6 6 6 6 7 6 6 6 5 6 5 5 4 5 4 3 3 1
11 11 10 10 10 11 10 9 11 12 6 2 4 5 5 4 5 3 5 7 8 9 10 10 10 10 9 5 6 7 8 9 8 8 9 9 7 8 10 11 9 11 10 9 1 2 2 3 4 6 6 6 6 7 6 6 7 7 7 8 8 8 8 7 6 6 6 5 6 7 8 7 6 6 6 6 6 6 6 6 6 5 4 3 2 2 3
12 11 11 11 11 11 9 9 9 9 10 5 5 4 2 3 4 5 6 6 8 9 8 7 8 9 9 8 9 11 12 10 9 9 8 9 7 11 9 8 6 4 6 6 4 3 3 4 5 6 6 6 6 5 6 7 7 7 7 7 7 7 7 7 7 7 7 6 7 6 7 7 7 6 6 6 5 5 6 6 5 5 4 3 2 2 2
14 11 10 11 10 9 10 10 11 12 14 9 6 4 5 3 3 4 6 5 4 7 10 10 10 10 10 13 12 10 10 9 10 10 10 9 7 12 11 6 4 3 2 4 4 3 4 4 5 6 6 6 5 7 7 7 6 7 7 7 7 7 7 7 7 7 7 7 6 6 6 6 6 6 6 6 5 5 6 6 4 5 4 3 3 2 2
11 11 13 13 10 10 9 10 10 10 9 8 10 9 8 4 4 5 5 6 3 3 8 11 12 12 12 13 16 14 10 8 9 12 14 16 18 16 9 7 5 4 3 5 4 4 5 5 5 6 5 4 5 6 5 7 6 7 6 6 6 6 6 7 6 7 6 6 6 6 6 7 5 6 6 5 5 5 5 4 4 4 2 2 2 2 2
11 12 12 11 10 8 8 9 10 9 9 9 10 10 8 6 2 5 6 5 3 4 3 5 10 10 13 17 17 14 10 8 8 9 8 9 9 7 9 7 1 2 3 4 4 5 6 4 5 6 5 5 4 4 6 6 7 6 6 6 6 6 6 6 6 6 7 6 7 6 6 6 6 6 6 4 4 4 4 3 3 2 3 3 2 1 2
12 12 12 11 9 8 7 7 6 8 10 10 11 12 10 8 7 7 6 5 6 7 8 8 8 17 19 16 15 13 13 10 10 10 8 6 5 8 10 4 2 2 2 5 5 6 5 4 5 4 5 5 5 5 6 7 6 6 6 6 6 5 6 6 6 5 5 6 6 6 6 6 6 5 4 4 4 3 2 2 1 1 2 2 3 3 3
12 12 11 10 9 9 8 7 8 7 8 9 10 10 10 8 8 8 10 11 12 14 16 15 14 12 12 13 14 14 11 10 11 10 10 9 8 5 3 9 7 4 6 6 5 5 5 4 5 4 5 6 6 7 6 6 5 6 6 6 6 6 5 5 5 5 5 6 5 5 5 5 6 6 5 4 4 2 3 3 3 3 3 4 4 3 3
10 8 8 8 9 8 7 7 7 7 8 8 9 10 10 9 9 10 10 10 11 9 9 8 8 9 9 9 12 11 9 8 8 7 9 9 10 11 9 7 6 6 7 6 5 5 5 4 4 6 8 8 8 7 6 5 5 5 6 5 5 5 5 5 5 5 5 5 5 5 5 5 4 5 4 4 3 2 2 2 3 3 3 3 3 4 3
8 7 8 8 8 6 6 7 7 7 5 4 7 10 10 11 10 12 11 9 10 9 9 9 8 7 7 7 9 9 8 6 4 3 8 8 10 5 2 4 6 5 6 6 5 5 4 4 6 7 7 8 8 7 6 5 5 4 5 6 5 5 5 5 5 4 4 4 4 4 5 4 4 3 3 3 4 3 3 3 3 4 3 3 3 3 4
8 7 7 6 7 7 6 5 5 4 4 5 8 10 11 9 10 10 11 10 10 10 9 9 9 9 8 9 10 8 9 9 9 8 7 2 5 8 6 5 6 5 8 7 5 5 4 7 8 7 8 7 6 7 5 4 5 6 6 6 5 6 5 5 3 5 3 4 3 3 3 3 3 3 3 4 3 2 2 4 4 3 5 4 4 4 5
7 7 8 7 7 7 6 6 7 8 8 9 10 9 8 9 9 8 10 11 11 10 9 9 9 8 7 6 5 8 13 12 9 9 7 8 11 9 7 8 8 8 7 6 5 4 4 6 6 7 8 7 6 5 5 5 6 6 5 5 4 5 4 4 3 3 2 2 3 3 3 3 2 3 3 2 2 3 3 3 4 3 3 5 3 5 5
7 7 7 8 8 7 7 9 10 10 11 10 7 6 6 7 9 10 9 9 9 10 9 8 7 8 8 7 6 5 3 7 15 8 6 7 7 7 6 5 6 7 7 6 7 7 9 8 7 6 7 6 7 5 6 6 4 4 4 4 3 4 3 3 2 3 2 1 1 1 1 1 1 2 2 3 4 4 5 4 5 3 3 4 5 5 4
8 7 8 8 9 10 9 8 8 8 7 5 5 6 8 7 8 9 9 10 10 9 9 9 10 9 8 8 9 6 6 5 3 7 5 5 6 6 7 8 8 7 5 5 6 5 6 7 7 6 6 5 7 5 4 4 4 4 3 3 2 2 2 2 2 2 3 2 2 1 2 2 3 3 4 4 5 4 5 5 4 4 4 4 4 6 5
8 7 7 7 7 8 7 6 7 7 5 4 5 5 4 4 7 8 7 7 8 7 8 8 8 7 7 7 7 7 8 10 10 10 8 7 7 7 6 5 5 5 5 6 7 6 5 7 6 6 5 5 4 4 3 3 2 2 1 1 1 1 1 2 2 3 2 2 1 1 2 3 4 4 5 4 4 4 4 4 4 5 6 6 6 5 5
7 8 7 7 7 8 10 9 8 6 6 6 6 5 5 7 7 6 6 6 6 8 8 7 7 7 7 7 7 8 9 8 9 9 7 7 6 6 6 6 5 4 4 4 4 3 3 4 3 3 3 3 2 2 1 1 1 1 1 1 1 1 1 2 2 1 1 2 2 3 4 4 4 4 5 4 4 4 5 5 5 5 5 5 6 6 6
9 7 6 6 6 7 8 8 9 8 8 7 6 6 7 6 7 7 8 10 8 6 5 5 8 7 6 6 7 7 7 7 5 6 7 5 5 5 5 6 5 4 4 4 4 5 4 3 3 3 3 2 2 1 1 1 0 0 1 1 1 1 2 3 3 2 2 2 3 4 5 5 4 5 5 5 5 5 5 5 5 5 5 5 5 5 6
Wind_Direction
231 235 247 191 193 200 199 203 197 192 194 183 196 216 227 217 207 231 242 226 234 251 257 233 225 211 222 220 231 232 232 284 312 232 244 259 255 247 226 224 218 217 217 215 211 206 204 194 201 203 202 201 200 203 198 189 185 187 174 173 181 183 180 185 187 178 172 174 170 167 167 168 173 173 172 172 170 168 172 170 169 167 163 158 150 149 143
231 238 242 222 193 227 227 207 202 194 184 196 204 217 223 220 226 239 254 255 240 245 255 245 233 222 220 224 229 251 356 250 251 244 234 234 241 234 228 221 219 220 223 215 208 200 200 202 202 202 202 202 199 196 196 188 186 187 171 179 180 185 185 184 176 171 170 170 171 170 171 179 179 174 173 173 172 172 175 172 165 162 160 161 163 162 157
240 241 244 241 210 218 228 233 221 204 200 203 208 216 223 226 240 241 245 251 258 252 249 269 218 215 211 239 249 255 245 248 243 241 238 234 235 239 239 237 231 226 223 216 201 203 209 205 203 201 202 199 195 198 195 188 188 180 175 180 183 184 187 178 169 166 169 174 171 176 180 179 177 177 177 176 174 173 171 169 166 163 160 163 169 171 174
241 244 243 244 227 194 227 233 198 214 215 217 216 217 212 206 218 225 235 250 253 258 257 243 252 160 201 213 221 228 239 234 235 238 240 237 237 240 239 235 234 229 220 212 208 212 213 209 202 198 198 194 191 201 189 187 183 171 180 184 184 185 183 173 172 173 176 174 176 181 180 180 177 177 171 170 172 172 169 166 167 162 168 176 175 172 169
233 241 239 247 146 170 247 233 228 220 219 218 218 227 223 217 213 216 222 234 241 252 224 213 231 181 208 209 208 223 234 232 225 230 235 237 243 246 241 235 231 225 220 214 213 218 214 206 201 204 188 180 198 192 183 182 163 177 185 186 187 185 180 178 178 179 178 178 180 177 177 173 171 168 168 170 171 172 176 172 161 172 181 173 175 171 168
241 242 244 216 182 223 225 226 230 224 224 203 210 225 225 229 207 220 225 240 251 259 254 240 248 198 214 209 223 211 218 230 235 242 244 243 244 248 246 237 231 228 224 227 222 219 215 208 201 186 184 192 188 174 173 166 174 180 180 184 185 187 181 181 178 176 176 176 179 178 172 168 166 169 170 178 178 175 168 167 177 181 180 179 172 172 176
231 245 242 231 230 232 231 249 258 231 226 210 214 227 230 228 224 240 256 255 250 246 247 249 254 230 226 226 228 238 240 241 236 233 230 232 233 236 240 241 234 226 224 226 226 220 216 195 175 168 182 179 157 159 165 169 175 174 181 179 183 182 181 178 174 175 174 173 172 169 170 167 168 173 176 176 176 178 177 180 181 183 180 178 182 180 180
255 210 212 240 234 234 330 273 229 240 221 223 224 243 243 235 224 216 231 242 247 252 256 252 243 245 252 274 254 246 243 229 236 235 239 234 225 233 230 226 231 225 226 221 215 216 178 173 181 178 175 160 159 168 164 170 172 176 176 180 182 180 180 174 172 171 170 170 171 170 171 171 172 176 178 181 181 178 177 179 180 173 182 185 184 184 182
228 210 225 238 309 310 275 277 240 179 190 181 194 227 240 235 226 214 223 235 241 243 248 252 256 298 327 291 276 245 208 230 223 224 236 236 229 227 233 215 228 228 228 213 209 180 175 176 167 171 158 158 159 156 165 169 167 172 175 182 184 180 177 176 174 172 174 174 173 170 171 172 176 179 179 181 180 170 173 175 177 185 189 191 186 181 179
207 225 238 241 232 237 244 236 241 130 201 195 194 205 254 251 224 218 220 231 238 245 255 260 255 98 275 275 267 264 191 215 217 229 239 244 236 232 232 224 232 214 198 168 158 162 163 169 166 155 155 157 154 157 164 165 169 175 180 186 181 179 182 180 178 176 176 173 172 170 169 175 177 179 174 169 172 169 176 178 186 189 185 176 180 181 181
196 219 231 227 230 234 229 249 237 187 174 148 134 169 241 249 240 212 215 227 239 243 241 248 145 187 237 251 258 262 170 212 206 217 233 233 232 232 218 205 203 190 185 172 163 154 156 161 161 149 150 150 154 163 167 170 174 177 184 182 178 182 180 173 171 167 167 169 170 170 174 178 174 172 175 176 168 162 173 173 180 166 168 175 179 189 194
220 225 228 234 214 240 232 239 178 197 136 119 119 204 239 243 248 168 189 203 226 235 234 236 201 200 231 247 258 254 179 193 210 204 228 238 235 225 203 215 196 172 152 132 149 161 164 161 150 151 150 156 161 165 169 167 175 182 185 185 180 170 164 165 168 168 171 173 175 174 176 173 171 171 159 154 165 171 174 172 167 170 178 186 192 196 188
227 224 243 259 262 259 240 193 202 150 160 131 173 221 235 227 130 172 159 193 209 223 231 220 209 218 220 233 245 88 108 113 185 0 22 244 195 197 188 180 144 141 154 159 162 162 156 148 150 148 149 149 159 161 162 169 184 188 176 162 162 165 163 164 167 170 170 174 173 173 169 166 162 159 162 165 160 166 171 172 171 175 183 190 196 200 192
230 232 235 238 267 236 160 331 157 172 105 212 218 230 188 156 157 174 187 190 207 214 223 219 214 227 231 252 84 147 151 194 173 137 151 102 70 41 71 146 143 137 135 130 127 124 136 143 145 149 149 154 156 160 164 182 186 161 153 160 157 155 158 162 164 165 166 166 165 161 157 152 156 164 166 164 169 172 174 174 180 187 186 189 196 202 199
229 227 242 231 236 249 134 125 77 289 198 238 173 203 291 180 223 190 216 203 217 211 229 228 220 236 247 194 213 193 191 161 186 174 177 167 158 147 126 122 142 137 134 136 139 140 143 144 146 150 148 150 155 157 175 181 153 148 152 150 152 153 155 157 161 163 163 163 161 158 159 163 163 166 161 162 164 165 167 173 181 187 187 187 191 202 209
213 209 221 220 218 143 167 148 185 203 228 194 169 142 256 214 179 198 208 226 226 212 215 227 232 234 210 282 236 176 210 195 141 170 143 128 107 100 76 117 144 125 118 118 118 126 135 142 147 151 153 152 159 168 173 148 144 142 145 148 147 151 156 161 159 161 163 162 160 160 160 159 159 152 159 162 162 170 171 173 178 187 191 184 190 200 210
203 216 224 204 178 170 207 190 186 200 219 215 203 204 217 211 239 191 178 243 250 220 217 229 197 221 227 218 183 187 199 189 183 170 173 159 159 146 147 138 133 126 132 131 120 114 121 138 146 152 155 153 156 160 157 144 146 146 146 146 149 154 156 157 159 155 152 154 154 151 151 152 152 157 158 156 162 170 163 172 177 187 193 184 196 206 208
296 276 164 213 228 250 251 254 233 215 225 226 205 198 216 225 202 177 194 214 227 215 190 200 243 221 212 192 202 207 184 173 164 119 114 111 112 117 114 113 114 120 115 114 118 116 99 108 130 137 144 150 154 160 145 146 144 141 143 146 151 154 151 150 147 141 142 143 147 152 156 163 165 165 164 168 169 168 171 180 182 188 189 185 201 205 215
205 245 186 222 235 227 212 220 228 231 251 255 221 219 225 223 192 210 229 220 218 207 181 198 215 222 185 197 193 176 163 173 170 170 160 161 161 157 147 144 132 125 128 123 124 124 120 107 115 118 127 123 135 135 144 141 140 141 144 145 142 141 144 140 141 147 149 155 152 153 158 153 151 155 158 165 163 167 178 178 183 190 188 189 197 203 218
211 233 215 243 240 249 249 232 242 244 242 235 244 242 271 283 258 220 215 149 204 155 198 213 211 209 182 179 182 177 180 175 172 166 164 156 139 118 126 137 133 126 130 133 132 129 128 130 116 113 116 123 135 132 134 137 136 134 136 142 144 148 148 148 153 156 155 153 152 155 161 158 152 154 165 171 172 179 182 182 180 190 187 195 199 202 213
270 306 297 273 280 325 257 244 245 255 262 242 238 234 241 249 226 227 206 202 196 186 215 185 171 172 200 194 178 169 170 165 170 170 158 154 138 138 137 151 148 143 142 131 133 126 125 122 106 99 98 105 120 129 132 136 136 133 135 134 134 137 141 140 146 151 148 156 158 154 157 162 160 167 172 181 184 187 199 182 185 179 188 202 206 204 194
248 233 239 232 260 262 250 231 228 232 225 211 241 237 236 223 213 203 193 217 223 199 203 188 184 186 187 185 173 175 175 171 162 152 144 140 138 131 124 119 123 118 128 132 129 123 118 111 104 103 97 85 77 103 127 135 133 131 132 129 129 138 141 142 142 142 142 148 149 151 154 158 144 83 69 158 170 164 182 179 191 198 176 195 195 180 193
266 284 287 302 271 275 272 276 252 231 203 190 215 224 227 227 220 203 189 180 181 208 221 201 187 188 175 180 167 160 167 166 159 149 149 147 149 145 143 130 131 134 135 133 123 121 127 122 113 109 102 95 94 96 123 133 130 132 133 131 130 136 141 149 155 147 143 142 146 144 149 151 151 145 103 60 111 159 154 161 181 201 205 207 184 180 180
245 256 263 260 233 243 263 271 243 236 203 194 215 225 224 220 210 200 201 200 188 196 197 196 194 180 170 164 161 157 142 140 144 146 146 143 144 147 154 145 142 137 138 138 133 130 130 119 111 109 100 81 80 71 92 120 130 132 138 139 145 152 145 144 141 143 142 142 142 141 143 148 154 154 153 143 53 36 151 173 182 194 209 216 216 207 202
243 244 242 249 237 251 262 279 249 253 228 202 212 224 224 217 210 195 202 214 224 184 175 188 191 172 166 168 165 163 160 160 159 153 150 146 151 151 147 142 145 141 139 129 119 120 117 116 108 104 98 70 43 46 44 106 133 130 134 131 133 140 141 142 139 140 141 145 149 148 150 151 153 156 159 164 163 189 16 136 188 201 215 222 231 238 244
246 268 275 260 293 265 274 308 278 255 240 212 237 252 241 220 214 196 211 204 197 199 193 173 162 170 163 164 164 150 142 154 156 150 144 147 142 134 146 145 133 119 118 118 119 120 117 113 112 106 97 61 23 352 354 57 118 126 130 133 142 150 154 150 144 146 147 149 148 151 149 150 154 160 167 166 168 153 157 96 44 30 31 41 31 18 332
251 247 283 300 287 277 243 228 258 250 228 216 218 236 252 240 207 200 189 185 191 186 192 190 174 155 151 158 145 150 150 138 133 149 146 143 149 147 135 119 124 126 124 121 117 118 118 114 107 102 83 10 345 342 352 69 107 104 108 113 111 108 120 129 138 143 142 141 139 136 136 140 146 150 146 126 120 130 145 155 160 161 243 340 5 32 34
255 229 169 227 253 256 286 281 257 274 261 227 223 224 193 143 146 159 176 165 132 136 134 142 146 147 146 154 146 131 131 145 151 147 141 141 120 109 116 118 118 118 115 114 116 116 112 109 102 91 57 3 347 335 343 108 112 111 116 118 117 121 118 115 116 122 125 126 131 135 136 130 123 118 122 125 121 120 114 118 131 136 1 341 286 319 18
257 236 205 219 241 263 267 285 289 258 248 258 205 139 139 159 186 185 196 192 176 150 150 157 171 169 156 156 156 148 153 147 144 148 134 115 107 108 107 106 100 98 105 109 106 109 112 112 115 98 57 341 335 341 327 111 112 115 115 117 116 115 110 107 110 107 106 102 106 111 116 120 118 112 109 109 108 109 109 116 110 100 113 331 354 5 40
245 244 222 222 225 201 1 335 311 322 315 306 195 199 196 172 180 202 192 172 171 180 174 150 146 144 138 147 155 150 154 155 141 117 112 112 110 111 112 113 99 89 94 98 113 119 116 118 115 108 97 343 334 330 103 99 95 95 94 96 102 109 113 116 110 109 106 107 108 104 105 109 109 113 110 109 111 115 120 115 124 123 96 50 61 98 69
222 255 286 257 53 55 127 187 122 13 345 324 299 236 223 216 202 186 178 158 148 138 136 150 147 137 138 137 115 91 95 101 108 113 108 108 110 118 131 143 141 152 149 141 126 118 117 112 104 102 88 300 319 119 118 110 111 105 97 95 95 105 111 111 108 114 120 116 112 108 107 107 117 117 119 116 109 107 108 113 111 111 121 117 102 95 275
234 230 225 316 325 284 309 212 160 176 164 86 313 270 242 218 211 203 176 169 168 150 147 145 145 143 132 123 120 112 108 106 105 94 90 92 84 60 42 49 74 93 109 118 119 123 123 115 107 126 301 308 40 109 117 116 115 107 109 111 107 105 103 108 104 108 110 113 117 114 124 121 111 110 110 117 130 132 134 125 129 135 141 128 138 191 247
277 245 256 257 257 254 242 242 196 205 195 189 204 214 280 299 324 206 183 143 127 160 160 149 133 118 118 121 119 119 116 111 108 108 106 96 70 55 45 64 82 89 91 80 89 88 107 115 120 126 89 80 91 91 99 109 110 115 114 112 108 106 107 105 113 110 100 102 109 119 118 112 123 119 127 130 129 125 122 122 129 129 127 142 165 251 247
333 309 314 317 307 281 250 232 206 186 185 226 246 244 215 259 162 132 126 124 104 113 130 117 124 129 135 132 133 133 129 120 121 117 101 96 94 87 84 83 85 81 76 82 77 66 53 59 72 97 68 74 74 83 94 100 107 107 116 114 114 113 106 109 109 110 113 108 109 104 106 115 115 123 125 125 125 123 126 130 129 129 121 112 75 278 286
315 291 286 292 313 326 326 296 199 193 183 184 216 234 232 202 173 167 160 163 170 172 135 123 130 136 136 139 145 155 159 153 149 137 134 128 124 120 119 113 106 91 79 52 47 47 18 33 87 96 85 66 71 77 88 99 108 110 108 109 107 108 111 112 109 115 121 124 122 116 114 110 111 110 116 120 125 126 123 124 129 129 127 127 123 48 29
339 332 332 332 335 334 335 338 326 247 188 191 194 203 209 206 179 157 169 175 131 119 128 135 140 138 144 152 154 161 142 108 114 116 114 123 130 134 128 118 113 99 100 83 31 358 340 55 82 93 97 92 85 70 84 98 102 108 114 112 110 107 102 98 101 97 103 119 114 113 117 117 119 120 121 118 117 118 122 123 124 122 129 135 135 108 62
343 337 327 320 325 333 334 338 342 327 302 198 167 169 180 187 182 150 120 130 145 149 148 142 141 147 142 119 95 80 86 100 109 119 121 127 132 122 113 107 111 125 123 114 105 9 20 83 63 74 85 90 84 77 82 84 103 107 111 109 114 114 114 110 107 110 112 108 117 119 116 112 107 109 113 120 121 125 123 124 122 122 128 134 131 128 121
331 338 334 331 327 331 343 344 342 339 338 16 38 46 96 130 133 137 139 136 138 140 141 138 131 121 113 104 88 90 96 99 115 117 122 122 130 116 101 108 111 112 112 126 140 110 94 81 65 81 84 83 90 92 90 90 104 109 109 112 115 116 116 120 119 118 118 121 120 121 123 125 125 118 111 108 116 121 122 124 129 134 138 139 145 139 144
343 344 341 337 330 340 346 354 7 8 4 355 351 32 17 30 75 100 112 115 119 126 121 121 122 116 117 113 108 104 102 117 122 123 112 105 89 88 74 52 10 354 67 107 110 93 85 84 88 87 85 88 90 89 96 83 79 99 103 110 110 114 119 122 124 125 122 127 120 119 118 116 118 121 120 122 120 116 122 130 134 137 140 153 147 161 167
338 342 339 336 334 342 350 2 7 4 350 354 350 342 334 8 62 87 99 95 63 95 131 138 135 131 129 124 112 105 112 118 115 103 101 108 102 98 97 67 37 19 54 86 84 90 84 77 84 88 86 80 83 92 92 84 86 97 100 105 110 111 113 120 120 120 126 122 118 115 112 116 117 119 124 124 123 124 126 128 126 133 140 150 165 182 175
336 337 335 338 330 339 353 1 1 356 354 346 348 333 331 336 15 98 85 89 80 93 104 124 125 121 118 104 105 106 110 104 104 115 132 124 106 109 112 123 71 30 53 84 93 95 88 84 88 94 89 83 87 76 91 76 86 96 99 102 109 112 116 114 119 124 132 129 127 126 131 126 121 120 126 128 131 135 138 139 145 156 163 175 195 199 213
337 338 334 337 335 342 349 360 358 3 1 359 350 343 358 9 41 45 40 66 68 63 69 58 86 119 112 101 98 100 86 84 86 59 49 67 99 124 116 127 132 146 110 92 85 86 84 81 81 85 90 86 85 80 90 86 95 98 99 97 99 104 109 113 112 114 106 107 115 121 124 128 131 138 136 133 134 142 142 131 136 169 199 192 202 207 204
340 341 339 337 335 343 357 4 20 6 360 2 0 357 350 7 39 51 46 35 48 47 59 68 102 108 114 119 115 108 103 106 93 95 78 58 52 4 104 136 121 131 109 104 96 88 85 88 89 92 95 97 101 98 83 88 89 91 94 98 100 100 101 107 114 116 116 119 121 127 132 137 138 143 147 149 158 154 150 168 186 203 206 209 220 226 225
335 338 340 339 339 350 359 13 13 16 27 11 1 -0 4 11 18 27 38 55 66 70 79 93 103 101 109 115 114 114 119 121 117 109 102 90 64 39 36 90 110 112 106 97 94 96 91 90 92 100 101 99 98 89 93 94 91 93 99 102 106 107 113 112 114 119 125 131 141 147 149 143 142 143 136 147 160 178 193 207 218 215 223 223 227 228 242
342 346 347 353 350 358 11 18 19 22 21 10 21 24 16 15 18 17 21 47 54 66 64 54 42 49 79 75 73 84 78 71 64 86 113 117 105 101 91 86 100 98 104 104 99 99 100 99 104 106 102 96 91 88 87 90 90 86 97 104 112 115 117 122 126 125 127 132 137 148 145 148 151 154 157 163 160 175 197 205 217 216 209 227 224 232 240
347 351 355 346 355 357 358 14 19 24 27 32 49 38 28 22 28 31 35 37 54 55 58 61 68 64 66 89 94 95 88 76 62 41 15 12 128 138 134 109 105 105 111 107 106 106 105 110 105 97 94 86 79 89 87 85 88 80 87 101 108 113 114 118 122 130 135 142 145 146 148 145 144 165 173 179 191 194 217 211 219 220 212 225 230 232 239
358 9 16 19 16 19 25 39 51 48 37 41 40 34 18 22 34 41 48 46 53 51 48 48 50 48 52 54 80 103 102 96 59 38 42 69 78 88 109 103 103 108 110 107 111 109 115 109 97 89 88 85 87 94 95 95 94 88 92 100 101 107 117 122 133 144 130 123 127 134 149 153 175 183 187 194 205 214 219 222 235 234 227 230 242 242 245
13 21 22 25 29 32 42 50 53 51 50 52 50 48 27 39 52 59 52 50 50 53 49 45 38 33 25 25 19 14 19 93 98 60 38 74 85 91 93 101 112 118 113 107 102 102 103 104 96 86 87 85 80 94 86 88 86 88 97 101 107 116 120 126 126 131 139 134 127 139 162 193 202 191 207 210 225 225 220 221 236 246 232 226 238 238 240
20 23 27 31 35 38 38 41 45 48 48 26 31 58 61 57 59 58 51 50 50 53 55 49 47 42 44 39 38 29 61 8 70 128 128 92 90 95 97 100 99 98 93 94 96 96 100 103 96 83 77 76 68 74 79 86 91 97 104 131 148 163 175 177 189 170 157 179 186 179 194 200 214 203 223 228 230 229 225 232 236 234 242 239 244 244 240
25 23 29 23 27 25 20 33 45 45 32 18 33 38 27 47 64 52 50 50 57 60 61 54 51 45 43 32 43 39 36 56 70 79 91 87 84 86 88 91 96 95 96 100 97 90 79 81 85 86 80 75 73 77 84 90 94 107 142 174 170 165 184 189 179 175 181 187 195 207 219 222 222 223 226 226 234 234 234 237 241 240 243 244 243 247 244
21 30 31 28 30 35 31 35 35 30 39 42 43 38 38 49 54 52 41 39 61 65 66 61 52 42 34 42 46 50 55 58 64 71 77 80 80 84 87 95 92 86 91 85 82 85 71 52 65 69 73 84 80 99 112 119 110 138 149 183 190 189 191 210 192 217 223 207 213 226 231 234 228 229 233 233 237 243 241 239 243 243 239 241 242 244 247
25 24 13 25 35 38 38 35 29 32 34 31 29 41 44 51 64 60 49 40 45 51 45 68 65 34 30 37 36 44 49 45 53 68 69 69 75 78 81 84 79 71 69 74 72 55 54 63 59 62 64 71 82 84 70 88 138 215 243 243 223 224 231 232 230 240 247 241 234 241 241 236 227 238 247 241 239 241 245 241 241 243 242 242 241 242 246